• In Portugal
  • List of Countries
  • For 7 days
  • Water Temperature
  • Satellite Maps
  • Weather Map
  • Weather Widgets
  • user-avatar
    Login

    Hourly Weather Gostkow

    Today, 18 July, Wednesday

    Time Temperature Precipitation Wind Pressure Humidity
    00:00 +15°C° 0.1 mm 4 mps 712 mmHg 94%
    01:00 +15°C° 0.1 mm 4 mps 712 mmHg 95%
    02:00 +15°C° 0.3 mm 4 mps 712 mmHg 95%
    03:00 +15°C° 0.3 mm 5 mps 712 mmHg 94%
    04:00 +15°C° 0.3 mm 5 mps 712 mmHg 94%
    05:00 +15°C° 1.1 mm 6 mps 712 mmHg 94%
    06:00 +15°C° 1.1 mm 6 mps 712 mmHg 94%
    07:00 +15°C° 1.1 mm 6 mps 712 mmHg 93%
    08:00 +15°C° 1.3 mm 7 mps 713 mmHg 93%
    09:00 +15°C° 1.3 mm 7 mps 713 mmHg 93%
    10:00 +15°C° 1.3 mm 7 mps 713 mmHg 93%
    11:00 +15°C° 0.9 mm 7 mps 713 mmHg 93%
    12:00 +16°C° 0.9 mm 7 mps 714 mmHg 92%
    13:00 +16°C° 0.9 mm 7 mps 714 mmHg 92%
    14:00 +16°C° 0.3 mm 7 mps 714 mmHg 90%
    15:00 +16°C° 0.3 mm 6 mps 714 mmHg 89%
    16:00 +16°C° 0.3 mm 6 mps 714 mmHg 87%
    17:00 +16°C° 0.2 mm 5 mps 715 mmHg 89%
    18:00 +16°C° 0.2 mm 5 mps 715 mmHg 90%
    19:00 +17°C° 0.2 mm 4 mps 715 mmHg 91%
    20:00 +17°C° 0.2 mm 4 mps 715 mmHg 92%
    21:00 +15°C° 0.2 mm 4 mps 716 mmHg 93%
    22:00 +16°C° 0.2 mm 3 mps 716 mmHg 95%
    23:00 +16°C° 0.4 mm 3 mps 716 mmHg 95%

    Tomorrow, 19 July, Thursday

    Time Temperature Precipitation Wind Pressure Humidity
    00:00 +16°C° 0.4 mm 3 mps 716 mmHg 95%
    01:00 +16°C° 0.4 mm 3 mps 716 mmHg 95%
    02:00 +16°C° 0.2 mm 3 mps 716 mmHg 95%
    03:00 +16°C° 0.2 mm 3 mps 716 mmHg 95%
    04:00 +14°C° 0.2 mm 3 mps 716 mmHg 95%
    05:00 +16°C° 0.1 mm 3 mps 716 mmHg 94%
    06:00 +15°C° 0.1 mm 4 mps 716 mmHg 93%
    07:00 +17°C° 0.1 mm 4 mps 716 mmHg 91%
    08:00 +17°C° 0.2 mm 4 mps 717 mmHg 90%
    09:00 +16°C° 0.2 mm 5 mps 717 mmHg 88%
    10:00 +16°C° 0.2 mm 5 mps 717 mmHg 87%
    11:00 +16°C° 0.3 mm 5 mps 717 mmHg 87%
    12:00 +16°C° 0.3 mm 5 mps 717 mmHg 87%
    13:00 +17°C° 0.3 mm 5 mps 717 mmHg 87%
    14:00 +16°C° 0.2 mm 5 mps 717 mmHg 88%
    15:00 +17°C° 0.2 mm 4 mps 717 mmHg 89%
    16:00 +17°C° 0.2 mm 4 mps 717 mmHg 91%
    17:00 +17°C° 0.1 mm 4 mps 717 mmHg 91%
    18:00 +17°C° 0.1 mm 3 mps 717 mmHg 91%
    19:00 +17°C° 0.1 mm 3 mps 717 mmHg 92%
    20:00 +17°C° 0.2 mm 3 mps 717 mmHg 93%
    21:00 +16°C° 0.2 mm 2 mps 717 mmHg 94%
    22:00 +15°C° 0.2 mm 2 mps 717 mmHg 96%
    23:00 +15°C° 0 mm 2 mps 717 mmHg 96%

    Day after tomorrow, 20 July, Friday

    Time Temperature Precipitation Wind Pressure Humidity
    00:00 +15°C° 0 mm 2 mps 717 mmHg 96%
    01:00 +15°C° 0 mm 2 mps 717 mmHg 96%
    02:00 +15°C° 0 mm 2 mps 717 mmHg 96%
    03:00 +15°C° 0 mm 2 mps 717 mmHg 96%
    04:00 +14°C° 0 mm 2 mps 717 mmHg 96%
    05:00 +15°C° 0 mm 2 mps 717 mmHg 92%
    06:00 +16°C° 0 mm 2 mps 717 mmHg 89%
    07:00 +17°C° 0 mm 2 mps 717 mmHg 86%
    08:00 +18°C° 0 mm 2 mps 717 mmHg 78%
    09:00 +19°C° 0 mm 2 mps 718 mmHg 71%
    10:00 +21°C° 0 mm 3 mps 718 mmHg 63%
    11:00 +21°C° 0 mm 2 mps 718 mmHg 59%
    12:00 +23°C° 0 mm 2 mps 717 mmHg 56%
    13:00 +24°C° 0 mm 2 mps 717 mmHg 52%
    14:00 +24°C° 0 mm 2 mps 717 mmHg 50%
    15:00 +25°C° 0 mm 2 mps 717 mmHg 49%
    16:00 +25°C° 0 mm 2 mps 716 mmHg 47%
    17:00 +24°C° 0 mm 2 mps 716 mmHg 52%
    18:00 +21°C° 0 mm 2 mps 716 mmHg 58%
    19:00 +21°C° 0 mm 1 mps 715 mmHg 63%
    20:00 +19°C° 0 mm 1 mps 715 mmHg 66%
    21:00 +18°C° 0 mm 1 mps 715 mmHg 68%
    22:00 +15°C° 0 mm 1 mps 715 mmHg 71%
    23:00 +15°C° 0 mm 1 mps 715 mmHg 72%

    21 July, Saturday

    Time Temperature Precipitation Wind Pressure Humidity
    00:00 +15°C° 0 mm 1 mps 715 mmHg 73%
    01:00 +14°C° 0 mm 1 mps 715 mmHg 74%
    02:00 +14°C° 0 mm 1 mps 715 mmHg 74%
    03:00 +14°C° 0 mm 1 mps 714 mmHg 74%
    04:00 +14°C° 0 mm 1 mps 714 mmHg 75%
    05:00 +15°C° 0 mm 1 mps 714 mmHg 71%
    06:00 +18°C° 0 mm 1 mps 715 mmHg 67%
    07:00 +20°C° 0 mm 1 mps 715 mmHg 63%
    08:00 +21°C° 0 mm 1 mps 715 mmHg 59%
    09:00 +23°C° 0 mm 1 mps 715 mmHg 54%
    10:00 +24°C° 0 mm 1 mps 715 mmHg 50%
    11:00 +25°C° 0 mm 1 mps 715 mmHg 48%
    12:00 +25°C° 0 mm 1 mps 715 mmHg 47%
    13:00 +26°C° 0 mm 1 mps 715 mmHg 45%
    14:00 +26°C° 0 mm 1 mps 714 mmHg 46%
    15:00 +26°C° 0 mm 1 mps 714 mmHg 47%
    16:00 +26°C° 0 mm 2 mps 714 mmHg 47%
    17:00 +24°C° 0 mm 2 mps 714 mmHg 54%
    18:00 +23°C° 0 mm 2 mps 714 mmHg 60%
    19:00 +21°C° 0 mm 2 mps 713 mmHg 67%
    20:00 +20°C° 0 mm 2 mps 713 mmHg 70%
    21:00 +18°C° 0 mm 2 mps 713 mmHg 72%
    22:00 +17°C° 0 mm 2 mps 713 mmHg 75%
    23:00 +18°C° 0 mm 1 mps 713 mmHg 76%

    22 July, Sunday

    Time Temperature Precipitation Wind Pressure Humidity
    00:00 +16°C° 0 mm 1 mps 713 mmHg 77%
    01:00 +16°C° 0 mm 1 mps 713 mmHg 78%
    02:00 +15°C° 0 mm 1 mps 713 mmHg 79%
    03:00 +15°C° 0 mm 1 mps 713 mmHg 80%
    04:00 +15°C° 0 mm 1 mps 713 mmHg 81%
    05:00 +16°C° 0 mm 1 mps 713 mmHg 77%
    06:00 +19°C° 0 mm 1 mps 714 mmHg 72%
    07:00 +20°C° 0 mm 1 mps 714 mmHg 68%
    08:00 +20°C° 0 mm 2 mps 714 mmHg 64%
    09:00 +21°C° 0 mm 2 mps 714 mmHg 60%
    10:00 +22°C° 0 mm 3 mps 714 mmHg 56%
    11:00 +24°C° 0 mm 3 mps 714 mmHg 54%
    12:00 +23°C° 0 mm 4 mps 714 mmHg 51%
    13:00 +23°C° 0 mm 4 mps 714 mmHg 48%
    14:00 +23°C° 0 mm 4 mps 714 mmHg 48%
    15:00 +23°C° 0 mm 4 mps 714 mmHg 47%
    16:00 +23°C° 0 mm 4 mps 714 mmHg 47%
    17:00 +22°C° 0 mm 4 mps 714 mmHg 53%
    18:00 +21°C° 0 mm 3 mps 715 mmHg 59%
    19:00 +19°C° 0 mm 2 mps 715 mmHg 65%
    20:00 +18°C° 0 mm 2 mps 715 mmHg 68%
    21:00 +17°C° 0 mm 2 mps 715 mmHg 70%
    22:00 +16°C° 0 mm 2 mps 715 mmHg 73%
    23:00 +16°C° 0 mm 2 mps 715 mmHg 76%

    23 July, Monday

    Time Temperature Precipitation Wind Pressure Humidity
    00:00 +15°C° 0 mm 2 mps 716 mmHg 79%
    01:00 +14°C° 0 mm 2 mps 716 mmHg 82%
    02:00 +14°C° 0 mm 2 mps 716 mmHg 83%
    03:00 +14°C° 0 mm 2 mps 716 mmHg 83%
    04:00 +13°C° 0 mm 2 mps 716 mmHg 84%
    05:00 +15°C° 0 mm 2 mps 717 mmHg 80%
    06:00 +16°C° 0 mm 2 mps 717 mmHg 76%
    07:00 +18°C° 0 mm 2 mps 717 mmHg 72%
    08:00 +19°C° 0.1 mm 2 mps 717 mmHg 68%
    09:00 +20°C° 0.1 mm 3 mps 718 mmHg 64%
    10:00 +21°C° 0.1 mm 3 mps 718 mmHg 60%
    11:00 +22°C° 0.1 mm 3 mps 718 mmHg 58%
    12:00 +22°C° 0.1 mm 3 mps 717 mmHg 56%
    13:00 +24°C° 0.1 mm 3 mps 717 mmHg 54%
    14:00 +24°C° 0.1 mm 3 mps 717 mmHg 55%
    15:00 +24°C° 0.1 mm 3 mps 717 mmHg 55%
    16:00 +23°C° 0.1 mm 4 mps 717 mmHg 55%
    17:00 +22°C° 0 mm 3 mps 717 mmHg 60%
    18:00 +21°C° 0 mm 2 mps 717 mmHg 65%
    19:00 +20°C° 0 mm 2 mps 717 mmHg 69%
    20:00 +19°C° 0 mm 1 mps 717 mmHg 73%
    21:00 +18°C° 0 mm 1 mps 717 mmHg 76%
    22:00 +15°C° 0 mm 1 mps 717 mmHg 80%
    23:00 +15°C° 0 mm 1 mps 717 mmHg 82%
    Show more